User: anonymous
Location: Caltech
(34.1382°N, 118.1253°W)
Time: 10:11:35
(UTC-07:00)
Language:

ITAMSAT 1 - Orbit

View from above orbital plane
View from above orbital plane
View from above satellite
View from above satellite

Ground track
Ground track

The orbit data is extracted from the following two-line orbital elements,

1 22826U 93061D   14210.08581578  .00000120  00000-0  63572-4 0  4815
2 22826 098.6584 156.1608 0009503 161.2502 198.9031 14.30033055 86901
Epoch (UTC): 29 July 2014 02:03:34
Eccentricity: 0.0009503
inclination: 98.6584°
perigee height: 785 km
apogee height: 798 km
right ascension of ascending node: 156.1608°
argument of perigee: 161.2502°
revolutions per day: 14.30033055
mean anomaly at epoch: 198.9031°
orbit number at epoch: 8690

The dashed part of the orbit path shows where the satellite is in the earth's shadow,  

DLR